Regional Weather Roundup
Issued by NWS

Home | Current Version | Previous Version | Graphics & Text | Print | Product List | Glossary On
Versions: 1 2 3 4 5 6 7 8 9 10 11 12 13 14 15 16 17 18 19 20 21 22 23 24 25 26 27 28 29 30 31 32 33 34 35 36 37 38 39 40 41 42 43 44 45 46 47 48 49 50
000
ASUS43 KIND 011309
RWRIN

WEATHER ROUNDUP FOR INDIANA
NATIONAL WEATHER SERVICE INDIANAPOLIS IN
900 AM EDT SAT OCT 01 2016

NOTE: "FAIR" INDICATES FEW OR NO CLOUDS BELOW 12,000 FEET WITH NO
SIGNIFICANT WEATHER AND/OR OBSTRUCTIONS TO VISIBILITY.

* - STATION DOES NOT REPORT WEATHER SUCH AS PRECIPITATION OR FOG.

+ - STATION NOT QUALITY CONTROLLED BY THE NATIONAL WEATHER SERVICE.
    USE DATA WITH CAUTION...ESPECIALLY DEWPOINT AND RELATIVE
    HUMIDITY OBSERVATIONS.

INZ001>003-010>013-019-020-011400-
NORTHWEST INDIANA

CITY           SKY/WX    TMP DP  RH WIND       PRES   REMARKS
GARY /AIRPORT/ RAIN      61  61 100 NE7       30.02R
KNOX *+        CLOUDY    57  52  82 E3        30.00S
LA PORTE +     CLOUDY   N/A N/A N/A E3        30.01S
MICHIGAN CITY+ CLOUDY    59  59 100 CALM      30.01S
MONTICELLO +   RAIN      58  54  88 SW3       29.99F
RENSSELAER +   LGT RAIN  57  57 100 CALM      30.01S
VALPARAISO     LGT RAIN  59  58  96 E5        30.01R

$$

LMZ046-743>745-011400-
SOUTHERN LAKE MICHIGAN

STATION/POSITION TIME  TEMP    WIND        PRES    WAVE
                       AIR SEA DIR/SP/G            HT
                 (UTC) (F)     (DEG/KT/KT) (MB)    (FT)
BURNS HARBOR     1301   61      50/ 12/ 15 1016.3
MICHIGAN CITY    1240   59      20/ 11/ 12   N/A
5NW MICH CITY    1300   60 64   50/ 14/ 17   N/A     4

$$

INZ004-005-014>016-021>024-011400-
NORTH CENTRAL INDIANA

CITY           SKY/WX    TMP DP  RH WIND       PRES   REMARKS
ELKHART        RAIN      59  57  94 NE6       30.00F
GOSHEN         CLOUDY    61  57  87 E5        30.00F
LOGANSPORT +   CLOUDY    55  55 100 S7        30.02R FOG
PERU/GRISSOM   HVY RAIN  57  57 100 S7        29.99F FOG
ROCHESTER +    MOSUNNY   59  59 100 CALM      30.00F
SOUTH BEND     CLOUDY    58  58 100 NE7       30.01S
WARSAW +       CLOUDY    59  55  88 SE5       30.00F

$$

INZ006>009-017-018-025>027-011400-
NORTHEAST INDIANA

CITY           SKY/WX    TMP DP  RH WIND       PRES   REMARKS
ANGOLA *+        N/A     59  48  67 SE3       30.02S
AUBURN +       CLOUDY    59  55  88 E3        30.03S FOG
FORT WAYNE     PTSUNNY   57  55  93 SE6       30.03R FOG
HUNTINGTON +   CLOUDY    57  55  95 S3        30.02S FOG
KENDALLVILLE + CLOUDY    59  58  97 SE5       30.02S FOG

$$

INZ028-029-035-036-043>045-051>053-011400-
WEST CENTRAL INDIANA

CITY           SKY/WX    TMP DP  RH WIND       PRES   REMARKS
CRAWFORDSVL +  MOSUNNY   53  53 100 CALM      30.02R
GREENCASTLE +  FOG       52  52 100 CALM      30.03R VSB 1
LAFAYETTE      CLOUDY    57  57 100 CALM      30.00S FOG
TERRE HAUTE    CLOUDY    55  53  93 SE6       30.02S

$$

INZ030>032-037>040-046>048-054>057-064-065-011400-
CENTRAL INDIANA

CITY           SKY/WX    TMP DP  RH WIND       PRES   REMARKS
ANDERSON       CLOUDY    55  55 100 CALM      30.05  FOG
COLUMBUS       CLOUDY    52  52 100 CALM      30.05R FOG
FRANKFORT +    CLOUDY    57  56  95 CALM      30.03S FOG
GREENWOOD *+   CLOUDY    54  54 100 S3        30.04R
INDIANAPOLIS   FOG       52  52 100 SE3       30.02S VSB 1/4
-EAGLE CREEK   PTSUNNY   53  52  96 CALM      30.02S FOG
KOKOMO *+      RAIN      56  55  97 S9        30.03S FOG
MARION +       CLOUDY    55  54  99 S6        30.03S FOG
MT COMFORT *+  PTSUNNY   54  52  94 SE3       30.04R
SHELBYVILLE    MOSUNNY   57  53  86 SE5       30.03R FOG
ZIONSVILLE +   MOSUNNY   53  52  97 S3        30.04R FOG

$$

INZ033-034-041-042-049-050-058-059-011400-
EAST CENTRAL INDIANA

CITY           SKY/WX    TMP DP  RH WIND       PRES   REMARKS
MUNCIE         CLOUDY    57  53  86 S5        30.03R

$$

INZ060-061-067>069-081>083-085>088-011400-
SOUTHWEST INDIANA

CITY           SKY/WX    TMP DP  RH WIND       PRES   REMARKS
EVANSVILLE     PTSUNNY   60  58  92 CALM      30.03R FOG
HUNTINGBURG *+   N/A     55  54  94 SE3       30.04S VSB 1/4
WASHINGTON +   FOG       54  54 100 SE3       30.02S VSB 1/4

$$

INZ062-063-066-070>080-084-089>092-011400-
SOUTH CENTRAL AND SOUTHEAST INDIANA

CITY           SKY/WX    TMP DP  RH WIND       PRES   REMARKS
BLOOMINGTON    FOG       51  50  96 CALM      30.03R VSB 1/4
MADISON *+     CLOUDY    54  52  94 CALM      30.06S
NORTH VERNON + FOG      N/A N/A N/A S7        30.05R VSB 1/4
SEYMOUR +      FOG       54  54 100 CALM      30.05R VSB 3/4

$$




USA.gov is the U.S. government's official web portal to all federal, state and local government web resources and services.